When you browse on this site, cookies collect data to enhance your experience and personalize the content and advertising you see.
Visit our Privacy Policy to learn more. By continuing to use the site, you agree to this use of cookies and data.
  • în România
  • Lista ţărilor
  • Pe 7 zile
  • Temperatura apei
  • Hartă satelitară
  • Meteo pe hartă
  • Widget-uri
  • user-avatar
    Intrare

    Meteo pe oră la Trujillo

    Astăzi, 22 Ianuarie, Marţi

    Timp Temperatura Precipitaţii Vânt Presiune Umiditate
    00:00 +19°C° 0 mm 1 m/s 648 mmHg 81%
    01:00 +18°C° 0 mm 1 m/s 648 mmHg 79%
    02:00 +18°C° 0 mm 1 m/s 648 mmHg 78%
    03:00 +18°C° 0 mm 1 m/s 648 mmHg 77%
    04:00 +16°C° 0 mm 1 m/s 648 mmHg 77%
    05:00 +18°C° 0 mm 1 m/s 648 mmHg 75%
    06:00 +19°C° 0 mm 1 m/s 649 mmHg 74%
    07:00 +20°C° 0 mm 1 m/s 649 mmHg 69%
    08:00 +22°C° 0 mm 1 m/s 650 mmHg 61%
    09:00 +25°C° 0 mm 1 m/s 651 mmHg 53%
    10:00 +28°C° 0 mm 1 m/s 652 mmHg 45%
    11:00 +29°C° 0 mm 1 m/s 652 mmHg 43%
    12:00 +29°C° 0 mm 1 m/s 652 mmHg 42%
    13:00 +30°C° 0 mm 1 m/s 651 mmHg 40%
    14:00 +29°C° 0.1 mm 1 m/s 650 mmHg 47%
    15:00 +27°C° 0.1 mm 1 m/s 649 mmHg 54%
    16:00 +25°C° 0.1 mm 1 m/s 648 mmHg 62%
    17:00 +23°C° 0 mm 1 m/s 648 mmHg 70%
    18:00 +22°C° 0 mm 1 m/s 648 mmHg 79%
    19:00 +18°C° 0 mm 0 m/s 647 mmHg 88%
    20:00 +19°C° 0 mm 1 m/s 648 mmHg 86%
    21:00 +19°C° 0 mm 1 m/s 648 mmHg 85%
    22:00 +19°C° 0 mm 1 m/s 648 mmHg 83%
    23:00 +18°C° 0 mm 1 m/s 648 mmHg 78%

    Mâine, 23 Ianuarie, Miercuri

    Timp Temperatura Precipitaţii Vânt Presiune Umiditate
    00:00 +18°C° 0 mm 1 m/s 648 mmHg 74%
    01:00 +16°C° 0 mm 1 m/s 648 mmHg 69%
    02:00 +16°C° 0 mm 1 m/s 648 mmHg 68%
    03:00 +16°C° 0 mm 1 m/s 647 mmHg 66%
    04:00 +16°C° 0 mm 1 m/s 647 mmHg 65%
    05:00 +16°C° 0 mm 1 m/s 648 mmHg 65%
    06:00 +18°C° 0 mm 1 m/s 649 mmHg 66%
    07:00 +18°C° 0 mm 1 m/s 649 mmHg 67%
    08:00 +21°C° 0 mm 1 m/s 650 mmHg 58%
    09:00 +24°C° 0 mm 1 m/s 651 mmHg 50%
    10:00 +27°C° 0 mm 1 m/s 652 mmHg 42%
    11:00 +28°C° 0 mm 1 m/s 652 mmHg 40%
    12:00 +29°C° 0 mm 1 m/s 651 mmHg 38%
    13:00 +30°C° 0 mm 1 m/s 651 mmHg 36%
    14:00 +29°C° 0 mm 1 m/s 650 mmHg 40%
    15:00 +28°C° 0 mm 1 m/s 649 mmHg 44%
    16:00 +27°C° 0 mm 1 m/s 648 mmHg 48%
    17:00 +24°C° 0 mm 1 m/s 647 mmHg 57%
    18:00 +22°C° 0 mm 1 m/s 647 mmHg 67%
    19:00 +19°C° 0 mm 1 m/s 646 mmHg 76%
    20:00 +19°C° 0 mm 1 m/s 647 mmHg 71%
    21:00 +19°C° 0 mm 1 m/s 647 mmHg 66%
    22:00 +18°C° 0 mm 1 m/s 648 mmHg 62%
    23:00 +18°C° 0 mm 1 m/s 647 mmHg 62%

    Poimâine, 24 Ianuarie, Joi

    Timp Temperatura Precipitaţii Vânt Presiune Umiditate
    00:00 +18°C° 0 mm 1 m/s 647 mmHg 63%
    01:00 +18°C° 0 mm 1 m/s 647 mmHg 63%
    02:00 +18°C° 0 mm 1 m/s 647 mmHg 66%
    03:00 +16°C° 0 mm 1 m/s 647 mmHg 70%
    04:00 +16°C° 0 mm 1 m/s 646 mmHg 73%
    05:00 +18°C° 0 mm 1 m/s 647 mmHg 73%
    06:00 +18°C° 0 mm 1 m/s 648 mmHg 72%
    07:00 +19°C° 0 mm 1 m/s 648 mmHg 71%
    08:00 +22°C° 0 mm 1 m/s 649 mmHg 61%
    09:00 +25°C° 0 mm 1 m/s 651 mmHg 51%
    10:00 +28°C° 0 mm 1 m/s 652 mmHg 41%
    11:00 +29°C° 0 mm 1 m/s 651 mmHg 39%
    12:00 +30°C° 0 mm 1 m/s 651 mmHg 37%
    13:00 +31°C° 0 mm 1 m/s 650 mmHg 35%
    14:00 +29°C° 0 mm 1 m/s 649 mmHg 39%
    15:00 +28°C° 0 mm 1 m/s 648 mmHg 43%
    16:00 +27°C° 0 mm 1 m/s 647 mmHg 47%
    17:00 +25°C° 0 mm 1 m/s 647 mmHg 56%
    18:00 +22°C° 0 mm 1 m/s 647 mmHg 66%
    19:00 +20°C° 0 mm 1 m/s 646 mmHg 75%
    20:00 +20°C° 0 mm 1 m/s 647 mmHg 74%
    21:00 +20°C° 0 mm 1 m/s 647 mmHg 73%
    22:00 +20°C° 0 mm 1 m/s 648 mmHg 71%
    23:00 +19°C° 0 mm 1 m/s 648 mmHg 71%

    25 Ianuarie, Vineri

    Timp Temperatura Precipitaţii Vânt Presiune Umiditate
    00:00 +19°C° 0 mm 1 m/s 647 mmHg 71%
    01:00 +19°C° 0 mm 1 m/s 647 mmHg 71%
    02:00 +19°C° 0 mm 1 m/s 647 mmHg 72%
    03:00 +19°C° 0 mm 1 m/s 647 mmHg 73%
    04:00 +18°C° 0 mm 1 m/s 647 mmHg 73%
    05:00 +19°C° 0 mm 1 m/s 647 mmHg 72%
    06:00 +19°C° 0 mm 1 m/s 648 mmHg 70%
    07:00 +19°C° 0 mm 1 m/s 649 mmHg 69%
    08:00 +22°C° 0 mm 1 m/s 649 mmHg 63%
    09:00 +24°C° 0 mm 1 m/s 650 mmHg 58%
    10:00 +26°C° 0 mm 1 m/s 651 mmHg 52%
    11:00 +27°C° 0 mm 1 m/s 650 mmHg 51%
    12:00 +27°C° 0 mm 1 m/s 649 mmHg 51%
    13:00 +27°C° 0 mm 1 m/s 649 mmHg 51%
    14:00 +26°C° 0 mm 1 m/s 648 mmHg 53%
    15:00 +26°C° 0 mm 1 m/s 647 mmHg 56%
    16:00 +25°C° 0 mm 1 m/s 646 mmHg 58%
    17:00 +23°C° 0 mm 1 m/s 646 mmHg 66%
    18:00 +21°C° 0 mm 1 m/s 646 mmHg 74%
    19:00 +19°C° 0 mm 1 m/s 646 mmHg 82%
    20:00 +19°C° 0 mm 1 m/s 646 mmHg 82%
    21:00 +19°C° 0 mm 1 m/s 646 mmHg 81%
    22:00 +19°C° 0 mm 1 m/s 647 mmHg 81%
    23:00 +19°C° 0 mm 1 m/s 647 mmHg 81%

    26 Ianuarie, Sâmbătă

    Timp Temperatura Precipitaţii Vânt Presiune Umiditate
    00:00 +19°C° 0 mm 1 m/s 647 mmHg 81%
    01:00 +18°C° 0 mm 1 m/s 646 mmHg 81%
    02:00 +18°C° 0 mm 1 m/s 646 mmHg 80%
    03:00 +18°C° 0 mm 1 m/s 646 mmHg 80%
    04:00 +18°C° 0 mm 1 m/s 646 mmHg 80%
    05:00 +18°C° 0 mm 1 m/s 647 mmHg 78%
    06:00 +19°C° 0 mm 1 m/s 647 mmHg 75%
    07:00 +19°C° 0 mm 1 m/s 648 mmHg 73%
    08:00 +21°C° 0 mm 1 m/s 649 mmHg 66%
    09:00 +24°C° 0 mm 1 m/s 650 mmHg 59%
    10:00 +26°C° 0 mm 1 m/s 651 mmHg 53%
    11:00 +26°C° 0 mm 1 m/s 650 mmHg 52%
    12:00 +26°C° 0 mm 1 m/s 649 mmHg 51%
    13:00 +27°C° 0 mm 1 m/s 648 mmHg 50%
    14:00 +26°C° 0 mm 1 m/s 647 mmHg 52%
    15:00 +25°C° 0 mm 1 m/s 647 mmHg 54%
    16:00 +25°C° 0 mm 1 m/s 646 mmHg 57%
    17:00 +23°C° 0 mm 1 m/s 646 mmHg 63%
    18:00 +20°C° 0 mm 0 m/s 645 mmHg 70%
    19:00 +18°C° 0 mm 0 m/s 645 mmHg 76%
    20:00 +20°C° 0 mm 1 m/s 646 mmHg 77%
    21:00 +19°C° 0 mm 1 m/s 646 mmHg 78%
    22:00 +19°C° 0 mm 1 m/s 646 mmHg 79%
    23:00 +19°C° 0 mm 1 m/s 646 mmHg 78%

    27 Ianuarie, Duminică

    Timp Temperatura Precipitaţii Vânt Presiune Umiditate
    00:00 +19°C° 0 mm 1 m/s 646 mmHg 77%
    01:00 +19°C° 0 mm 1 m/s 646 mmHg 77%
    02:00 +19°C° 0 mm 1 m/s 646 mmHg 77%
    03:00 +19°C° 0 mm 1 m/s 645 mmHg 77%
    04:00 +19°C° 0 mm 1 m/s 645 mmHg 78%
    05:00 +19°C° 0 mm 1 m/s 646 mmHg 77%
    06:00 +19°C° 0 mm 1 m/s 646 mmHg 76%
    07:00 +19°C° 0 mm 1 m/s 647 mmHg 74%
    08:00 +22°C° 0 mm 1 m/s 648 mmHg 67%
    09:00 +24°C° 0 mm 1 m/s 649 mmHg 59%
    10:00 +27°C° 0 mm 1 m/s 650 mmHg 51%
    11:00 +27°C° 0 mm 1 m/s 649 mmHg 52%
    12:00 +27°C° 0 mm 1 m/s 648 mmHg 53%
    13:00 +26°C° 0 mm 1 m/s 647 mmHg 54%
    14:00 +26°C° 0 mm 1 m/s 647 mmHg 55%
    15:00 +26°C° 0 mm 1 m/s 646 mmHg 57%
    16:00 +25°C° 0 mm 1 m/s 645 mmHg 59%
    17:00 +23°C° 0 mm 1 m/s 645 mmHg 67%
    18:00 +21°C° 0 mm 1 m/s 645 mmHg 75%
    19:00 +17°C° 0 mm 0 m/s 645 mmHg 83%
    20:00 +17°C° 0 mm 0 m/s 645 mmHg 83%
    21:00 +19°C° 0 mm 1 m/s 646 mmHg 83%
    22:00 +19°C° 0 mm 1 m/s 646 mmHg 83%
    23:00 +19°C° 0 mm 1 m/s 646 mmHg 82%
    Arată mai mult